Location: DARK SKY Beskydy - Park tmavé oblohy, www.darkskybeskydy.cz
(49.4926°N, 18.5016°E)
Time: 14:06:35
(UTC+01:00)

Vanguard 1 - Pass Details

Date: 20 November 2025
Orbit: 650 x 3821 km, 34.2° (Epoch: 07 December)

Event Time Altitude Azimuth Distance (km) Brightness Sun altitude
Rises 22:11:08 0° 280° (W) 7,932 15.0 -56.3°
Reaches altitude 10° 22:18:53 10° 267° (W) 6,909 14.5 -57.0°
Enters shadow 22:31:40 20° 233° (SW) 5,661 13.7 -58.1°
